�N����,����,�g�[���i���ԁj���x,�g�[�����x,��g�[���i���ցj���x,����
 2003/07/01, 0:00,26,55,26.2,25
 2003/07/01, 0:15,26,56.5,26.2,25
 2003/07/01, 0:30,26,57,26.2,25
 2003/07/01, 0:45,26,57.5,26.1,25
 2003/07/01, 1:00,26,58,26.1,25
 2003/07/01, 1:15,26,59,26.1,25
 2003/07/01, 1:30,26.2,63,26,25.1
 2003/07/01, 1:45,26.4,64.5,26,25.1
 2003/07/01, 2:00,26.2,64,26,25.1
 2003/07/01, 2:15,26,63.5,26,25.1
 2003/07/01, 2:30,26,63,25.9,25.2
 2003/07/01, 2:45,25.9,62.5,25.9,25.1
 2003/07/01, 3:00,26.1,63,25.9,25.2
 2003/07/01, 3:15,26.2,63,25.8,25.2
 2003/07/01, 3:30,26.2,64,25.8,25.2
 2003/07/01, 3:45,26.4,64,25.8,25.2
 2003/07/01, 4:00,26.6,65,25.7,25.2
 2003/07/01, 4:15,26.7,66,25.7,25.2
 2003/07/01, 4:30,26.7,66,25.6,25.3
 2003/07/01, 4:45,26.8,66.5,25.6,25.3
 2003/07/01, 5:00,26.8,67,25.6,25.3
 2003/07/01, 5:15,26.8,67,25.5,25.3
 2003/07/01, 5:30,26.8,67,25.5,25.3
 2003/07/01, 5:45,26.9,68,25.5,25.3
 2003/07/01, 6:00,26.9,68,25.5,25.3
 2003/07/01, 6:15,26.9,67.5,25.4,25.4
 2003/07/01, 6:30,26.9,68,25.4,25.4
 2003/07/01, 6:45,27,68,25.4,25.4
 2003/07/01, 7:00,27,68,25.4,25.4
 2003/07/01, 7:15,26.9,67.5,25.2,25.4
 2003/07/01, 7:30,26.8,68,25.2,25.4
 2003/07/01, 7:45,26.9,68,25.2,25.4
 2003/07/01, 8:00,26.8,68,25.2,25.4
 2003/07/01, 8:15,27,68.5,25.2,25.4
 2003/07/01, 8:30,27.1,69,25.2,25.4
 2003/07/01, 8:45,27.1,69.5,25.2,25.4
 2003/07/01, 9:00,27,69,25.2,25.4
 2003/07/01, 9:15,26.6,69.5,25.2,25.4
 2003/07/01, 9:30,26.5,72,25.2,25.4
 2003/07/01, 9:45,26.5,71,25.1,25.4
 2003/07/01,10:00,26.8,71,25.2,25.4
 2003/07/01,10:15,26.9,70.5,25.2,25.4
 2003/07/01,10:30,27.1,70,25.2,25.4
 2003/07/01,10:45,27.2,70,25.2,25.4
 2003/07/01,11:00,27.2,70,25.2,25.4
 2003/07/01,11:15,27.4,69.5,25.2,25.4
 2003/07/01,11:30,27.4,69,25.2,25.4
 2003/07/01,11:45,27.4,69,25.2,25.4
 2003/07/01,12:00,27.4,69,25.2,25.4
 2003/07/01,12:15,27.5,69,25.2,25.4
 2003/07/01,12:30,27.5,69,25.3,25.4
 2003/07/01,12:45,27.7,69,25.2,25.3
 2003/07/01,13:00,27.8,69,25.3,25.3
 2003/07/01,13:15,27.8,68.5,25.3,25.4
 2003/07/01,13:30,27.6,69,25.2,25.3
 2003/07/01,13:45,27.6,69,25.2,25.4
 2003/07/01,14:00,27.7,69,25.2,25.4
 2003/07/01,14:15,27.9,69,25.2,25.4
 2003/07/01,14:30,27.7,69,25.1,25.3
 2003/07/01,14:45,27.6,70,25,25.3
 2003/07/01,15:00,27.7,70,25.1,25.3
 2003/07/01,15:15,27.8,69.5,25,25.4
 2003/07/01,15:30,27.7,69,25,25.3
 2003/07/01,15:45,27.7,69,25,25.3
 2003/07/01,16:00,27.6,70,24.9,25.3
 2003/07/01,16:15,27.7,69,24.9,25.3
 2003/07/01,16:30,27.5,70,24.8,25.3
 2003/07/01,16:45,27.4,70,24.8,25.3
 2003/07/01,17:00,27.4,71,24.7,25.3
 2003/07/01,17:15,27.3,71.5,24.7,25.3
 2003/07/01,17:30,26.6,69,24.6,25.3
 2003/07/01,17:45,26.4,70.5,24.5,25.2
 2003/07/01,18:00,26.7,70,24.5,25.3
 2003/07/01,18:15,26.9,69.5,24.5,25.2
 2003/07/01,18:30,26.9,70,24.4,25.2
 2003/07/01,18:45,27,69,24.4,25.2
 2003/07/01,19:00,26.7,70,24.3,25.2
 2003/07/01,19:15,26.4,71,24.4,25.2
 2003/07/01,19:30,26.2,71,24.2,25.2
 2003/07/01,19:45,26.3,71,24.2,25.1
 2003/07/01,20:00,26.4,71,24.1,25.1
 2003/07/01,20:15,26.4,70.5,24.1,25.1
 2003/07/01,20:30,26.4,70,24,25.1
 2003/07/01,20:45,26.4,70,24,23.5
 2003/07/01,21:00,26.4,70,24,21.9
 2003/07/01,21:15,26.1,70.5,24,21.9
 2003/07/01,21:30,26,72,24,22
 2003/07/01,21:45,25.9,74,24,22
 2003/07/01,22:00,25.6,74,24,22
 2003/07/01,22:15,25.8,76,24,22
 2003/07/01,22:30,25.9,75,24,22.1
 2003/07/01,22:45,25.7,74.5,24,22.1
 2003/07/01,23:00,25.6,77,24,22.2
 2003/07/01,23:15,25.4,76.5,24,22.2
 2003/07/01,23:30,25.5,76,23.9,22.2
 2003/07/01,23:45,25.4,75.5,23.9,22.2
 2003/07/02, 0:00,25.2,77,23.8,22.2
 2003/07/02, 0:15,25.5,74.5,23.8,22.3
 2003/07/02, 0:30,25.6,74,23.7,22.3
 2003/07/02, 0:45,25.5,73.5,23.6,22.3
 2003/07/02, 1:00,25.4,73,23.6,22.3
 2003/07/02, 1:15,25.4,73,23.5,22.4
 2003/07/02, 1:30,25.3,73,23.5,22.4
 2003/07/02, 1:45,25.3,73,23.5,22.4
 2003/07/02, 2:00,25.3,73,23.3,22.4
 2003/07/02, 2:15,25.2,73,23.3,22.5
 2003/07/02, 2:30,25.2,73,23.3,22.5
 2003/07/02, 2:45,25.1,73,23.2,22.5
 2003/07/02, 3:00,25,73,23.2,22.5
 2003/07/02, 3:15,25,73,23.1,22.5
 2003/07/02, 3:30,25,73,23.1,22.6
 2003/07/02, 3:45,25,73,23.1,22.6
 2003/07/02, 4:00,24.9,73,23.1,22.6
 2003/07/02, 4:15,24.9,72.5,23,22.6
 2003/07/02, 4:30,24.8,73,23,22.6
 2003/07/02, 4:45,24.8,73,23,22.6
 2003/07/02, 5:00,24.7,73,22.9,22.7
 2003/07/02, 5:15,24.7,73,22.8,22.7
 2003/07/02, 5:30,24.6,73,22.8,22.7
 2003/07/02, 5:45,24.6,72.5,22.8,22.7
 2003/07/02, 6:00,24.6,72,22.7,22.7
 2003/07/02, 6:15,24.6,73,22.8,22.7
 2003/07/02, 6:30,24.7,72,22.8,22.8
 2003/07/02, 6:45,24.7,72.5,22.9,22.8
 2003/07/02, 7:00,24.8,73,22.9,22.8
 2003/07/02, 7:15,24.9,73,22.9,22.8
 2003/07/02, 7:30,25,73,22.9,22.8
 2003/07/02, 7:45,25.1,72.5,23,22.8
 2003/07/02, 8:00,25.1,72,23,22.8
 2003/07/02, 8:15,25.2,72,23,22.8
 2003/07/02, 8:30,25.3,71,23.1,22.8
 2003/07/02, 8:45,25.4,71,23.2,22.8
 2003/07/02, 9:00,25.5,71,23.3,22.8
 2003/07/02, 9:15,25.5,70,23.4,22.8
 2003/07/02, 9:30,25.5,70,23.4,22.8
 2003/07/02, 9:45,25.6,70,23.5,22.9
 2003/07/02,10:00,25.7,70,23.6,22.8
 2003/07/02,10:15,25.8,69.5,23.8,22.8
 2003/07/02,10:30,25.9,69,23.8,22.9
 2003/07/02,10:45,26,69,24,22.9
 2003/07/02,11:00,26.1,68,24,22.9
 2003/07/02,11:15,26.2,68,24.1,22.9
 2003/07/02,11:30,26.3,68,24.3,22.9
 2003/07/02,11:45,26.4,67,24.4,22.9
 2003/07/02,12:00,26.5,67,24.4,22.9
 2003/07/02,12:15,26.5,67,24.5,22.9
 2003/07/02,12:30,26.6,67,24.5,22.9
 2003/07/02,12:45,26.8,66.5,24.6,23
 2003/07/02,13:00,26.9,66,24.7,23
 2003/07/02,13:15,27,66,24.8,23
 2003/07/02,13:30,27.2,65,24.9,23
 2003/07/02,13:45,27.4,65,25,23
 2003/07/02,14:00,27.4,65,25,23
 2003/07/02,14:15,27.5,65,25.1,23
 2003/07/02,14:30,27.6,65,25.2,23
 2003/07/02,14:45,27.7,64.5,25.2,23
 2003/07/02,15:00,27.7,65,25.4,23.1
 2003/07/02,15:15,27.9,64,25.5,23
 2003/07/02,15:30,28,64,25.5,23.1
 2003/07/02,15:45,28,64,25.5,23.1
 2003/07/02,16:00,28.1,64,25.5,23.1
 2003/07/02,16:15,28.1,64,25.6,23.1
 2003/07/02,16:30,28.1,64,25.5,23.1
 2003/07/02,16:45,28.1,56.5,25.6,23.2
 2003/07/02,17:00,28.1,51,25.5,23.2
 2003/07/02,17:15,28.1,51,25.5,23.2
 2003/07/02,17:30,28.2,56,25.5,23.2
 2003/07/02,17:45,28.3,56,25.6,23.2
 2003/07/02,18:00,28.3,55,25.6,23.2
 2003/07/02,18:15,27.9,52,25.5,23.3
 2003/07/02,18:30,27.6,52,25.4,23.3
 2003/07/02,18:45,27.5,52.5,25.5,23.3
 2003/07/02,19:00,27.3,53,25.3,23.3
 2003/07/02,19:15,27.2,54,25.3,23.3
 2003/07/02,19:30,26.9,53,25.3,23.3
 2003/07/02,19:45,27,55.5,25.2,23.4
 2003/07/02,20:00,26.9,56,25.2,23.4
 2003/07/02,20:15,27,59,25.2,23.4
 2003/07/02,20:30,27.4,58,25.2,23.4
 2003/07/02,20:45,27.6,58,25.1,23.5
 2003/07/02,21:00,27.8,58,25.1,23.5
 2003/07/02,21:15,27.8,58,25,23.5
 2003/07/02,21:30,27.8,58,25,23.5
 2003/07/02,21:45,27.8,58,25,23.5
 2003/07/02,22:00,27.6,58,24.9,23.5
 2003/07/02,22:15,27.5,59,24.9,22.9
 2003/07/02,22:30,27.5,60,24.9,22.2
 2003/07/02,22:45,26.6,72.5,24.8,22.2
 2003/07/02,23:00,26.2,73,24.7,22.2
 2003/07/02,23:15,25.7,74.5,24.5,22.2
 2003/07/02,23:30,25.2,75,24.5,22.3
 2003/07/02,23:45,24.8,75.5,24.5,22.3
 2003/07/03, 0:00,24.6,77,24.4,22.3
 2003/07/03, 0:15,24.3,75.5,24.3,22.4
 2003/07/03, 0:30,24.1,77,24.2,22.4
 2003/07/03, 0:45,24.1,77,24.1,22.4
 2003/07/03, 1:00,24.1,77,24.1,22.5
 2003/07/03, 1:15,23.9,77,24,22.5
 2003/07/03, 1:30,23.7,76,23.9,22.5
 2003/07/03, 1:45,23.6,76,23.9,22.5
 2003/07/03, 2:00,23.5,76,23.8,22.5
 2003/07/03, 2:15,23.4,75.5,23.8,22.5
 2003/07/03, 2:30,23.4,76,23.7,22.6
 2003/07/03, 2:45,23.5,75,23.6,22.6
 2003/07/03, 3:00,23.3,75,23.5,22.6
 2003/07/03, 3:15,23.3,74.5,23.5,22.6
 2003/07/03, 3:30,23.3,75,23.4,22.7
 2003/07/03, 3:45,23.2,74,23.4,22.7
 2003/07/03, 4:00,23.2,74,23.3,22.7
 2003/07/03, 4:15,23.5,73,23.3,22.7
 2003/07/03, 4:30,23.6,72,23.2,22.7
 2003/07/03, 4:45,23.7,72,23.2,22.7
 2003/07/03, 5:00,23.7,72,23.2,22.8
 2003/07/03, 5:15,23.7,72,23.1,22.8
 2003/07/03, 5:30,23.8,71,23,22.8
 2003/07/03, 5:45,23.7,72,23,22.8
 2003/07/03, 6:00,23.7,72,23,22.8
 2003/07/03, 6:15,23.8,72,23,22.8
 2003/07/03, 6:30,23.9,72,23,22.8
 2003/07/03, 6:45,24,72,23,22.8
 2003/07/03, 7:00,24,71,23,22.8
 2003/07/03, 7:15,24.2,72,23.1,22.9
 2003/07/03, 7:30,24.2,72,23.1,22.9
 2003/07/03, 7:45,24.4,72,23.1,22.9
 2003/07/03, 8:00,24.3,71,23.2,22.9
 2003/07/03, 8:15,24.3,71.5,23.1,22.9
 2003/07/03, 8:30,24.3,71,23.2,22.9
 2003/07/03, 8:45,24.4,69,23.2,22.9
 2003/07/03, 9:00,24.5,69,23.3,22.9
 2003/07/03, 9:15,24.5,68.5,23.3,22.9
 2003/07/03, 9:30,24.7,67,23.3,22.9
 2003/07/03, 9:45,24.7,67,23.4,22.9
 2003/07/03,10:00,24.7,68,23.5,22.9
 2003/07/03,10:15,24.9,68,23.5,22.9
 2003/07/03,10:30,24.9,68,23.5,22.9
 2003/07/03,10:45,24.9,68.5,23.5,22.9
 2003/07/03,11:00,24.9,69,23.5,22.9
 2003/07/03,11:15,25,69,23.5,23
 2003/07/03,11:30,24.9,69,23.5,22.9
 2003/07/03,11:45,24.9,69,23.5,23
 2003/07/03,12:00,24.9,69,23.5,23
 2003/07/03,12:15,25,69.5,23.5,23
 2003/07/03,12:30,25,69,23.5,23
 2003/07/03,12:45,24.9,70,23.5,23
 2003/07/03,13:00,24.9,70,23.5,23
 2003/07/03,13:15,24.9,71,23.5,23
 2003/07/03,13:30,24.9,71,23.4,23
 2003/07/03,13:45,24.9,71,23.5,23
 2003/07/03,14:00,24.9,71,23.5,23
 2003/07/03,14:15,24.9,70,23.5,23
 2003/07/03,14:30,24.9,70,23.5,23
 2003/07/03,14:45,24.9,71,23.5,23
 2003/07/03,15:00,24.9,70,23.5,23
 2003/07/03,15:15,24.9,70,23.5,23.1
 2003/07/03,15:30,24.9,70,23.5,23.1
 2003/07/03,15:45,24.9,70,23.5,23
 2003/07/03,16:00,24.9,70,23.6,23.1
 2003/07/03,16:15,25,70,23.6,23.1
 2003/07/03,16:30,25,70,23.6,23.1
 2003/07/03,16:45,25,70,23.6,23.1
 2003/07/03,17:00,25,70,23.6,23.1
 2003/07/03,17:15,24.9,72,23.6,23.1
 2003/07/03,17:30,24.9,72,23.6,23.1
 2003/07/03,17:45,24.9,72,23.5,23.1
 2003/07/03,18:00,24.9,71,23.5,23.1
 2003/07/03,18:15,24.9,71,23.5,23.1
 2003/07/03,18:30,24.9,71,23.5,23.1
 2003/07/03,18:45,25,71,23.4,23.2
 2003/07/03,19:00,25,70,23.4,23.2
 2003/07/03,19:15,24.9,71,23.4,23.1
 2003/07/03,19:30,24.9,71,23.4,23.2
 2003/07/03,19:45,24.9,71,23.4,23.2
 2003/07/03,20:00,24.8,72,23.4,23.2
 2003/07/03,20:15,24.8,72,23.3,23.2
 2003/07/03,20:30,24.8,72,23.3,23.2
 2003/07/03,20:45,24.8,72,23.3,23.2
 2003/07/03,21:00,24.7,73,23.3,23.2
 2003/07/03,21:15,24.7,73,23.3,23.2
 2003/07/03,21:30,24.7,73,23.3,23.2
 2003/07/03,21:45,24.7,73,23.3,23.2
 2003/07/03,22:00,24.7,73,23.3,23.2
 2003/07/03,22:15,24.7,73,23.3,23.2
 2003/07/03,22:30,24.7,72,23.3,23.2
 2003/07/03,22:45,24.6,72,23.3,23.2
 2003/07/03,23:00,24.7,72,23.3,23.2
 2003/07/03,23:15,24.6,72,23.3,23.3
 2003/07/03,23:30,24.6,73,23.3,23.3
 2003/07/03,23:45,24.6,73.5,23.2,23.3
 2003/07/04, 0:00,24.6,74,23.4,23.2
 2003/07/04, 0:15,24.7,74.5,23.5,23.3
 2003/07/04, 0:30,25.1,75,23.6,23.3
 2003/07/04, 0:45,25.2,75.5,23.6,22.9
 2003/07/04, 1:00,25.4,74,23.6,22.4
 2003/07/04, 1:15,25.2,74.5,23.6,22.4
 2003/07/04, 1:30,25.2,74,23.6,22.4
 2003/07/04, 1:45,25.2,74.5,23.6,22.4
 2003/07/04, 2:00,25.2,74,23.6,22.4
 2003/07/04, 2:15,25.2,74,23.6,22.4
 2003/07/04, 2:30,25.2,74,23.6,22.5
 2003/07/04, 2:45,25.2,74,23.5,22.4
 2003/07/04, 3:00,25.2,74,23.5,22.5
 2003/07/04, 3:15,25.2,73.5,23.6,22.5
 2003/07/04, 3:30,25.2,73,23.6,22.5
 2003/07/04, 3:45,25.2,73.5,23.5,22.5
 2003/07/04, 4:00,25.2,74,23.6,22.6
 2003/07/04, 4:15,25.2,73,23.6,22.5
 2003/07/04, 4:30,25.2,73,23.6,22.6
 2003/07/04, 4:45,25.2,73,23.6,22.6
 2003/07/04, 5:00,25.2,74,23.5,22.6
 2003/07/04, 5:15,25.2,73,23.6,22.6
 2003/07/04, 5:30,25.2,73,23.6,22.6
 2003/07/04, 5:45,25.2,73,23.6,22.7
 2003/07/04, 6:00,25.3,73,23.6,22.7
 2003/07/04, 6:15,25.3,72.5,23.7,22.7
 2003/07/04, 6:30,25.3,73,23.7,22.7
 2003/07/04, 6:45,25.5,72.5,23.8,22.7
 2003/07/04, 7:00,25.7,74,24,22.7
 2003/07/04, 7:15,25.8,73,24,22.8
 2003/07/04, 7:30,25.8,74,24,22.8
 2003/07/04, 7:45,25.6,81.5,24.1,22.8
 2003/07/04, 8:00,25.5,83,24.1,22.8
 2003/07/04, 8:15,25.5,83.5,24.2,22.8
 2003/07/04, 8:30,25.5,84,24.4,22.9
 2003/07/04, 8:45,25.5,83.5,24.4,22.9
 2003/07/04, 9:00,25.5,84,24.5,22.9
 2003/07/04, 9:15,25.6,83,24.6,22.9
 2003/07/04, 9:30,25.6,83,24.7,22.9
 2003/07/04, 9:45,25.7,82.5,24.8,23
 2003/07/04,10:00,25.8,82,24.9,22.9
 2003/07/04,10:15,25.8,82,25,23
 2003/07/04,10:30,25.9,81,25,23
 2003/07/04,10:45,26,80,25.1,23
 2003/07/04,11:00,26.1,80,25.3,23
 2003/07/04,11:15,26.2,79.5,25.4,23
 2003/07/04,11:30,26.3,78,25.4,23.1
 2003/07/04,11:45,26.4,78,25.5,23.1
 2003/07/04,12:00,26.6,77,25.5,23.1
 2003/07/04,12:15,26.7,76.5,25.6,23.1
 2003/07/04,12:30,26.8,76,25.7,23.1
 2003/07/04,12:45,27,75,25.7,23.2
 2003/07/04,13:00,27.1,74,25.8,23.2
 2003/07/04,13:15,27.2,74,25.9,23.2
 2003/07/04,13:30,27.3,71,26,23.2
 2003/07/04,13:45,27.3,70.5,26,22.9
 2003/07/04,14:00,27.3,66,26.2,22.6
 2003/07/04,14:15,27.2,64.5,26.2,22.6
 2003/07/04,14:30,27.1,64,26.2,22.7
 2003/07/04,14:45,27.1,64.5,26.1,22.7
 2003/07/04,15:00,27,65,26.1,22.7
 2003/07/04,15:15,27,66,26,22.8
 2003/07/04,15:30,26.9,65,25.8,22.8
 2003/07/04,15:45,26.9,65,25.7,22.8
 2003/07/04,16:00,26.8,66,25.6,22.8
 2003/07/04,16:15,27,67,25.6,22.2
 2003/07/04,16:30,26.9,66,25.6,22.2
 2003/07/04,16:45,27.1,66.5,25.5,22.2
 2003/07/04,17:00,27.1,66,25.5,22.2
 2003/07/04,17:15,27.1,67.5,25.5,22.6
 2003/07/04,17:30,27.1,68,25.5,22.7
 2003/07/04,17:45,27.1,68.5,25.4,22.7
 2003/07/04,18:00,27.1,69,25.3,22.7
 2003/07/04,18:15,27,69,25.2,22.7
 2003/07/04,18:30,27,68,25.1,22.8
 2003/07/04,18:45,27,68,25,22.8
 2003/07/04,19:00,26.9,68,25,22.8
 2003/07/04,19:15,26.9,68,25,22.9
 2003/07/04,19:30,26.8,68,24.8,22.9
 2003/07/04,19:45,26.7,68,24.8,22.9
 2003/07/04,20:00,26.7,68,24.7,22.9
 2003/07/04,20:15,26.6,68,24.7,23
 2003/07/04,20:30,26.6,68,24.6,23
 2003/07/04,20:45,26.5,68,24.5,23
 2003/07/04,21:00,26.4,68,24.5,23
 2003/07/04,21:15,26.5,67,24.5,23
 2003/07/04,21:30,26.4,67,24.4,23.1
 2003/07/04,21:45,26.2,66,24.3,23.1
 2003/07/04,22:00,25.8,68,24.5,23.1
 2003/07/04,22:15,26,69.5,24.5,23.1
 2003/07/04,22:30,26.3,68,24.5,23.2
 2003/07/04,22:45,26,68,24.4,23.2
 2003/07/04,23:00,25.5,71,24.2,23.2
 2003/07/04,23:15,25.4,71,24,23.2
 2003/07/04,23:30,25.6,71,24,23.3
 2003/07/04,23:45,25.8,69.5,23.9,23.3
 2003/07/05, 0:00,25.5,71,23.9,23.3
 2003/07/05, 0:15,25.5,71,23.8,23.3
 2003/07/05, 0:30,25.4,70,23.7,23.3
 2003/07/05, 0:45,25.4,69.5,23.7,23.3
 2003/07/05, 1:00,25.5,69,23.6,23.4
 2003/07/05, 1:15,25.5,68,23.6,23.4
 2003/07/05, 1:30,25.5,68,23.6,23.4
 2003/07/05, 1:45,25.5,68.5,23.4,23.4
 2003/07/05, 2:00,25.5,68,23.4,23.4
 2003/07/05, 2:15,25.5,67.5,23.4,23.4
 2003/07/05, 2:30,25.4,67,23.2,23.4
 2003/07/05, 2:45,25.4,67,23.2,23.5
 2003/07/05, 3:00,25.4,67,23.1,23.5
 2003/07/05, 3:15,25.3,67,23,23.5
 2003/07/05, 3:30,25.3,67,23,23.5
 2003/07/05, 3:45,25.2,66.5,23,23.5
 2003/07/05, 4:00,25.3,67,23,23.5
 2003/07/05, 4:15,25.2,67,23,23.5
 2003/07/05, 4:30,25.2,66,23,23.5
 2003/07/05, 4:45,25.1,67,23,23.5
 2003/07/05, 5:00,25.1,67,22.9,23.5
 2003/07/05, 5:15,25,67,22.9,23.5
 2003/07/05, 5:30,25,67,22.9,23.6
 2003/07/05, 5:45,25,67,22.8,23.5
 2003/07/05, 6:00,25,67,22.7,23.6
 2003/07/05, 6:15,25,67.5,22.6,23.5
 2003/07/05, 6:30,25,68,22.8,23.6
 2003/07/05, 6:45,25.1,67,23,23.5
 2003/07/05, 7:00,25.1,67,23,23.5
 2003/07/05, 7:15,25.2,67,23,23.6
 2003/07/05, 7:30,25.1,67,23,23.6
 2003/07/05, 7:45,25,70,23,23.5
 2003/07/05, 8:00,24.7,75,23,23.6
 2003/07/05, 8:15,24.7,76.5,23,23.5
 2003/07/05, 8:30,24.8,77,23,23.5
 2003/07/05, 8:45,24.9,77,23,23.5
 2003/07/05, 9:00,24.8,77,23,23.5
 2003/07/05, 9:15,24.8,77,23,23.5
 2003/07/05, 9:30,24.9,77,23,23.5
 2003/07/05, 9:45,24.8,77.5,23,23.5
 2003/07/05,10:00,24.8,77,23,23.5
 2003/07/05,10:15,24.8,78,23,23.5
 2003/07/05,10:30,24.5,82,23,23.5
 2003/07/05,10:45,24.5,82,23,23.5
 2003/07/05,11:00,24.7,82,23.1,23.5
 2003/07/05,11:15,24.9,81,23,23.5
 2003/07/05,11:30,24.9,78,23.1,23.5
 2003/07/05,11:45,25,79,23.1,23.5
 2003/07/05,12:00,25,76,23.1,23.5
 2003/07/05,12:15,25,79.5,23.2,23.5
 2003/07/05,12:30,25,80,23.2,23.5
 2003/07/05,12:45,25,80,23.2,23.5
 2003/07/05,13:00,25,80,23.3,23.5
 2003/07/05,13:15,25.1,79.5,23.4,23.5
 2003/07/05,13:30,25.2,79,23.5,23.5
 2003/07/05,13:45,25.4,78,23.6,23.4
 2003/07/05,14:00,25.5,77,23.7,23.5
 2003/07/05,14:15,25.5,77,23.8,23.4
 2003/07/05,14:30,25.5,77,23.7,23.4
 2003/07/05,14:45,25.5,77,23.8,23.4
 2003/07/05,15:00,25.5,77,23.8,23.4
 2003/07/05,15:15,25.5,77,23.8,23.4
 2003/07/05,15:30,25.6,77,23.9,23.4
 2003/07/05,15:45,25.7,75.5,24,23.5
 2003/07/05,16:00,25.7,76,24,23.4
 2003/07/05,16:15,25.8,75,24,23.5
 2003/07/05,16:30,25.8,76,24,23.4
 2003/07/05,16:45,25.8,75,24,23.4
 2003/07/05,17:00,25.8,75,24,23.4
 2003/07/05,17:15,25.8,76,24,23.4
 2003/07/05,17:30,25.8,77,24,23.5
 2003/07/05,17:45,25.9,75,24,23.5
 2003/07/05,18:00,25.5,74,24,23.5
 2003/07/05,18:15,25.5,76,24,22.4
 2003/07/05,18:30,25.5,77,24,22.4
 2003/07/05,18:45,25.8,77,24,22.4
 2003/07/05,19:00,26,75,24,22.5
 2003/07/05,19:15,26.5,76,24,22.5
 2003/07/05,19:30,26.8,75,24.1,22.5
 2003/07/05,19:45,27,75,24,22.5
 2003/07/05,20:00,26.8,74,24.1,22.5
 2003/07/05,20:15,26.3,74.5,24,22.5
 2003/07/05,20:30,26.2,76,24,22.6
 2003/07/05,20:45,26.1,76,24.1,22.6
 2003/07/05,21:00,26.2,76,24.1,22.6
 2003/07/05,21:15,26.2,76,24.1,22.6
 2003/07/05,21:30,26.2,76,24.1,22.6
 2003/07/05,21:45,26.1,76.5,24.2,22.6
 2003/07/05,22:00,26,77,24.1,22.6
 2003/07/05,22:15,26,77,24.2,22.6
 2003/07/05,22:30,25.8,77,24.2,22.7
 2003/07/05,22:45,25.8,77.5,24,22.7
 2003/07/05,23:00,25.7,77,24,22.7
 2003/07/05,23:15,25.7,78,24,22.8
 2003/07/05,23:30,25.6,78,24,22.7
 2003/07/05,23:45,25.6,78,24,22.8
 2003/07/06, 0:00,25.6,78,24,22.8
 2003/07/06, 0:15,25.5,78.5,24,22.8
 2003/07/06, 0:30,25.5,79,24,22.8
 2003/07/06, 0:45,25.5,80,24,22.8
 2003/07/06, 1:00,25.5,79,24.1,22.8
 2003/07/06, 1:15,25.6,79.5,24,22.9
 2003/07/06, 1:30,25.8,79,24,22.9
 2003/07/06, 1:45,25.7,79,24,22.9
 2003/07/06, 2:00,25.5,80,24,22.9
 2003/07/06, 2:15,25.4,80,23.9,22.9
 2003/07/06, 2:30,25.4,80,23.9,22.9
 2003/07/06, 2:45,25.2,81,23.9,23
 2003/07/06, 3:00,25.2,81,23.9,23
 2003/07/06, 3:15,25.2,80.5,23.9,23
 2003/07/06, 3:30,25.2,81,23.9,23
 2003/07/06, 3:45,25.2,81.5,23.9,23
 2003/07/06, 4:00,25.2,82,23.9,23
 2003/07/06, 4:15,25.1,82,23.9,23.1
 2003/07/06, 4:30,25.1,83,23.9,23.1
 2003/07/06, 4:45,25.1,83,23.9,23.1
 2003/07/06, 5:00,25.1,83,23.9,23.1
 2003/07/06, 5:15,25,83,23.9,23.1
 2003/07/06, 5:30,25.1,83,23.9,23.1
 2003/07/06, 5:45,25.1,83,23.9,23.1
 2003/07/06, 6:00,25.1,83,23.9,23.1
 2003/07/06, 6:15,25.2,82.5,24,23.2
 2003/07/06, 6:30,25.3,82,24,23.2
 2003/07/06, 6:45,25.3,82,24,23.2
 2003/07/06, 7:00,25.4,81,24.1,23.2
 2003/07/06, 7:15,25.4,82,24.1,23.2
 2003/07/06, 7:30,25.4,81,24.1,23.2
 2003/07/06, 7:45,25.3,83,24.2,23.2
 2003/07/06, 8:00,25.4,83,24.2,23.3
 2003/07/06, 8:15,25.5,83,24.2,23.3
 2003/07/06, 8:30,25.5,83,24.3,23.3
 2003/07/06, 8:45,25.8,80,24.4,23.3
 2003/07/06, 9:00,25.9,79,24.5,22.5
 2003/07/06, 9:15,25.7,80.5,24.5,22.5
 2003/07/06, 9:30,25.9,80,24.6,22.5
 2003/07/06, 9:45,26.1,79,24.6,22.5
 2003/07/06,10:00,26.2,79,24.7,22.5
 2003/07/06,10:15,26.5,77.5,24.8,21.4
 2003/07/06,10:30,26.6,76,24.9,21.4
 2003/07/06,10:45,26.8,76,25.1,21.4
 2003/07/06,11:00,26.9,77,25.2,21.5
 2003/07/06,11:15,26.9,77.5,25.2,21.5
 2003/07/06,11:30,26.8,80,25.3,21.5
 2003/07/06,11:45,26.9,79,25.3,21.6
 2003/07/06,12:00,27.1,77,25.5,21.6
 2003/07/06,12:15,27.3,74,25.5,21.6
 2003/07/06,12:30,27.3,77,25.6,21.7
 2003/07/06,12:45,27.4,74.5,25.6,21.7
 2003/07/06,13:00,27.8,72,25.7,21.8
 2003/07/06,13:15,27,73.5,25.8,21.8
 2003/07/06,13:30,26.8,74,25.8,21.9
 2003/07/06,13:45,27,74.5,25.9,21.9
 2003/07/06,14:00,27.3,75,25.9,21.9
 2003/07/06,14:15,27.3,76.5,25.9,22
 2003/07/06,14:30,27.4,77,25.8,22
 2003/07/06,14:45,27.4,78,26,22.1
 2003/07/06,15:00,27.5,79,26,22.3
 2003/07/06,15:15,27.5,79,26,22.2
 2003/07/06,15:30,27.6,77,25.9,22.3
 2003/07/06,15:45,27.6,76.5,26,22.3
 2003/07/06,16:00,27.8,75,26,22.3
 2003/07/06,16:15,27.8,74,26.1,22.4
 2003/07/06,16:30,27.7,73,26,22.4
 2003/07/06,16:45,27.2,73,26.1,22.4
 2003/07/06,17:00,26.9,73,26.1,22.5
 2003/07/06,17:15,26.8,71.5,26,22.5
 2003/07/06,17:30,26.6,71,26.1,22.5
 2003/07/06,17:45,26.4,71.5,26.1,22.5
 2003/07/06,18:00,26.9,73,26,22.6
 2003/07/06,18:15,27.2,73.5,26,22.6
 2003/07/06,18:30,27.4,74,26,22.7
 2003/07/06,18:45,26.8,71.5,25.9,22.7
 2003/07/06,19:00,26.4,71,25.9,22.7
 2003/07/06,19:15,26.4,71.5,25.8,22.8
 2003/07/06,19:30,26.4,73,25.6,22.8
 2003/07/06,19:45,26.5,74.5,25.5,22.9
 2003/07/06,20:00,26.6,74,25.5,22.9
 2003/07/06,20:15,26.5,75,25.5,22.4
 2003/07/06,20:30,26.5,75,25.5,21.8
 2003/07/06,20:45,26.5,75.5,25.5,21.9
 2003/07/06,21:00,26.5,75,25.5,21.9
 2003/07/06,21:15,26.5,75.5,25.4,22
 2003/07/06,21:30,26.7,76,25.4,22
 2003/07/06,21:45,26.3,74,25.5,22
 2003/07/06,22:00,26.1,74,25.5,22.1
 2003/07/06,22:15,26.1,76,25.6,22.1
 2003/07/06,22:30,26.2,77,25.6,22.2
 2003/07/06,22:45,26.4,76.5,25.5,22.2
 2003/07/06,23:00,26.4,76,25.5,22.3
 2003/07/06,23:15,26.1,75,25.5,22.3
 2003/07/06,23:30,26,75,25.5,22.3
 2003/07/06,23:45,26,75.5,25.4,22.4
 2003/07/07, 0:00,26.1,77,25.4,22.4
 2003/07/07, 0:15,26,76,25.4,22.5
 2003/07/07, 0:30,26,76,25.3,22.5
 2003/07/07, 0:45,25.9,68.5,25.3,22.5
 2003/07/07, 1:00,25.8,68,25.3,22.5
 2003/07/07, 1:15,26,71,25.3,22.6
 2003/07/07, 1:30,26.2,72,25.3,22.6
 2003/07/07, 1:45,26.2,72.5,25.3,22.6
 2003/07/07, 2:00,26.2,73,25.3,22.7
 2003/07/07, 2:15,26.3,73,25.3,22.7
 2003/07/07, 2:30,26.3,74,25.3,22.8
 2003/07/07, 2:45,26.3,74,25.2,22.8
 2003/07/07, 3:00,26.4,74,25.1,22.9
 2003/07/07, 3:15,26.3,74.5,25.1,22.9
 2003/07/07, 3:30,26.3,75,25.1,22.9
 2003/07/07, 3:45,26.3,75.5,25,22.9
 2003/07/07, 4:00,26.3,76,25,23
 2003/07/07, 4:15,26.2,76,25,23
 2003/07/07, 4:30,26.2,76,25,23
 2003/07/07, 4:45,26.2,76,25,23.1
 2003/07/07, 5:00,26.2,76,24.9,23.1
 2003/07/07, 5:15,26.2,76.5,25,23.1
 2003/07/07, 5:30,26.2,77,24.9,23.2
 2003/07/07, 5:45,26.2,77,24.9,23.2
 2003/07/07, 6:00,26.2,77,25,23.2
 2003/07/07, 6:15,26.2,77,25,23.2
 2003/07/07, 6:30,26.3,77,25,23.3
 2003/07/07, 6:45,26.5,77,25,23.3
 2003/07/07, 7:00,26.5,77,25,23.3
 2003/07/07, 7:15,26.8,77,25,23.4
 2003/07/07, 7:30,26.9,77,25,23.4
 2003/07/07, 7:45,26.8,76,25,23.4
 2003/07/07, 8:00,26.7,76,25,23.4
 2003/07/07, 8:15,26.6,76,25,23.4
 2003/07/07, 8:30,26.7,76,25,23.5
 2003/07/07, 8:45,26.6,75.5,25,23.5
 2003/07/07, 9:00,26.6,76,25.1,23.5
 2003/07/07, 9:15,26.6,76,25,23.5
 2003/07/07, 9:30,26.7,76,25.1,23.5
 2003/07/07, 9:45,26.8,76,25.2,23.6
 2003/07/07,10:00,26.8,76,25.2,23.6
 2003/07/07,10:15,26.9,76,25.2,23.6
 2003/07/07,10:30,26.9,76,25.3,23.6
 2003/07/07,10:45,26.9,76,25.3,23.7
 2003/07/07,11:00,26.9,75,25.4,23.7
 2003/07/07,11:15,27,75,25.4,23.7
 2003/07/07,11:30,26.9,75,25.4,23.7
 2003/07/07,11:45,27,75,25.5,23.8
 2003/07/07,12:00,27,75,25.5,23.8
 2003/07/07,12:15,27,75,25.5,23.8
 2003/07/07,12:30,27.2,75,25.7,23.8
 2003/07/07,12:45,27.3,74,25.8,23.8
 2003/07/07,13:00,27.3,74,25.8,23.8
 2003/07/07,13:15,27.4,74,25.9,23.9
 2003/07/07,13:30,27.4,74,26,23.9
 2003/07/07,13:45,27.5,74,26,23.9
 2003/07/07,14:00,27.6,73,26.2,23.9
 2003/07/07,14:15,27.7,73.5,26.2,24
 2003/07/07,14:30,27.8,73,26.3,23.9
 2003/07/07,14:45,27.9,73,26.5,24
 2003/07/07,15:00,27.9,73,26.5,24
 2003/07/07,15:15,28,73,26.5,24
 2003/07/07,15:30,28,73,26.5,24.1
 2003/07/07,15:45,28.1,73,26.6,24.1
 2003/07/07,16:00,28.2,73,26.7,24.1
 2003/07/07,16:15,28.3,72,26.7,24.1
 2003/07/07,16:30,28.3,73,26.7,24.1
 2003/07/07,16:45,28.3,73,26.8,24.2
 2003/07/07,17:00,28.3,72,26.8,24.2
 2003/07/07,17:15,28.4,73,26.8,24.2
 2003/07/07,17:30,28.4,73,26.8,24.2
 2003/07/07,17:45,28.4,73,26.8,24.2
 2003/07/07,18:00,28.4,73,26.7,24.3
 2003/07/07,18:15,28.5,73,26.8,24.3
 2003/07/07,18:30,28.5,73,26.8,24.3
 2003/07/07,18:45,28.4,73,26.8,24.4
 2003/07/07,19:00,28.5,73,26.7,24.4
 2003/07/07,19:15,28.5,73,26.7,24.4
 2003/07/07,19:30,28.5,73,26.7,24.4
 2003/07/07,19:45,28.4,74,26.7,24.5